QTR71 OTHH-EDDF

Flight info

Callsign QTR71
Flight time N/A
Altitude 28000
Route DATRI L564 BAT/N0492F290 L564 MIGMA/N0479F280 M628 AMBAG/N0485F400 M321 KSA T503 OVANO L768 FIRAS R655 KTN R785 NIKAS L619 VESAR UB545 MUT UL619 MAKOL DCT ARGES DCT OXDOC DCT BEGLA DCT UBUXI DCT DITIS DCT RAPET T170 GAPLA/N0418F240 T178 KERAX KERAX5A
Aircraft A359/H-SDE2E3GHIJ1J3J4J5LM1ORWXY/LB1D1

Departure

Time 2026-05-06 09:42
Airport Hamad International Airport (OTHH)

Arrival

Time N/A
Airport Frankfurt Main Airport (EDDF)
Time Latitude Longitude Altitude Speed Heading
2026-05-06 09:24 25.26812 51.61266 28 ft 0 kts 292°
2026-05-06 09:25 25.26808 51.61277 28 ft 3 kts 291°
2026-05-06 09:25 25.26801 51.61298 28 ft 3 kts 286°
2026-05-06 09:26 25.26797 51.61323 27 ft 3 kts 263°
2026-05-06 09:26 25.26801 51.61345 26 ft 3 kts 257°
2026-05-06 09:26 25.26804 51.61358 26 ft 0 kts 248°
2026-05-06 09:28 25.26804 51.61357 26 ft 1 kts 248°
2026-05-06 09:28 25.26799 51.61345 26 ft 0 kts 247°
2026-05-06 09:28 25.26795 51.61336 27 ft 5 kts 246°
2026-05-06 09:29 25.26787 51.61317 26 ft 1 kts 243°
2026-05-06 09:29 25.26786 51.61315 26 ft 0 kts 242°
2026-05-06 09:29 25.26792 51.61326 26 ft 3 kts 229°
2026-05-06 09:30 25.26805 51.61339 26 ft 3 kts 210°
2026-05-06 09:30 25.26814 51.61345 25 ft 0 kts 200°
2026-05-06 09:31 25.26790 51.61336 26 ft 11 kts 195°
2026-05-06 09:31 25.26725 51.61329 28 ft 7 kts 179°
2026-05-06 09:31 25.26723 51.61329 28 ft 0 kts 179°
2026-05-06 09:32 25.26704 51.61330 28 ft 6 kts 175°
2026-05-06 09:32 25.26651 51.61342 28 ft 9 kts 163°
2026-05-06 09:32 25.26649 51.61343 28 ft 0 kts 163°
2026-05-06 09:34 25.26646 51.61345 28 ft 3 kts 150°
2026-05-06 09:35 25.26595 51.61382 28 ft 11 kts 160°
2026-05-06 09:35 25.26484 51.61426 28 ft 22 kts 160°
2026-05-06 09:35 25.26397 51.61535 28 ft 21 kts 78°
2026-05-06 09:35 25.26452 51.61690 28 ft 23 kts 68°
2026-05-06 09:36 25.26513 51.61855 28 ft 24 kts 70°
2026-05-06 09:36 25.26560 51.62009 28 ft 7 kts 100°
2026-05-06 09:36 25.26514 51.62062 28 ft 12 kts 150°
2026-05-06 09:36 25.26425 51.62104 29 ft 16 kts 157°
2026-05-06 09:37 25.26319 51.62152 29 ft 17 kts 158°
2026-05-06 09:37 25.26206 51.62201 29 ft 18 kts 158°
2026-05-06 09:37 25.26084 51.62254 30 ft 19 kts 158°
2026-05-06 09:37 25.25953 51.62312 29 ft 22 kts 158°
2026-05-06 09:38 25.25808 51.62376 29 ft 23 kts 158°
2026-05-06 09:38 25.25670 51.62436 28 ft 8 kts 158°
2026-05-06 09:38 25.25619 51.62461 28 ft 10 kts 148°
2026-05-06 09:38 25.25552 51.62488 28 ft 13 kts 158°
2026-05-06 09:39 25.25514 51.62574 29 ft 14 kts 70°
2026-05-06 09:39 25.25589 51.62666 29 ft 18 kts 18°
2026-05-06 09:39 25.25654 51.62649 29 ft 6 kts 337°
2026-05-06 09:40 25.25659 51.62647 29 ft 8 kts 337°
2026-05-06 09:41 25.25912 51.62531 29 ft 70 kts 338°
2026-05-06 09:41 25.26535 51.62260 29 ft 120 kts 336°
2026-05-06 09:41 25.27440 51.61860 38 ft 158 kts 336°
2026-05-06 09:41 25.28511 51.61399 312 ft 169 kts 341°
2026-05-06 09:42 25.29560 51.60891 899 ft 163 kts 339°
2026-05-06 09:42 25.30638 51.60422 1322 ft 172 kts 342°
2026-05-06 09:42 25.31818 51.59930 1589 ft 191 kts 341°
2026-05-06 09:42 25.33120 51.59360 1820 ft 212 kts 341°
2026-05-06 09:43 25.34636 51.59226 1984 ft 231 kts 16°
2026-05-06 09:43 25.36195 51.59860 2342 ft 247 kts 23°
2026-05-06 09:43 25.37834 51.60531 2866 ft 255 kts 19°
2026-05-06 09:43 25.39551 51.61118 3458 ft 262 kts 17°
2026-05-06 09:44 25.41368 51.61667 3867 ft 279 kts 15°
2026-05-06 09:44 25.43283 51.62204 3989 ft 282 kts 14°
2026-05-06 09:44 25.45162 51.62708 4007 ft 283 kts 14°
2026-05-06 09:44 25.47059 51.63207 3994 ft 275 kts 14°
2026-05-06 09:45 25.48892 51.63676 4001 ft 269 kts 13°
2026-05-06 09:45 25.50722 51.64116 3994 ft 269 kts 13°
2026-05-06 09:45 25.52544 51.64552 4000 ft 270 kts 13°
2026-05-06 09:45 25.53770 51.64846 4006 ft 270 kts 12°
2026-05-06 09:46 25.55630 51.65059 4183 ft 278 kts 354°
2026-05-06 09:46 25.57469 51.64194 4963 ft 298 kts 321°
2026-05-06 09:46 25.58712 51.62327 5961 ft 312 kts 294°
2026-05-06 09:46 25.59000 51.59093 6719 ft 326 kts 259°
2026-05-06 09:47 25.58495 51.57548 6895 ft 309 kts 241°
2026-05-06 09:47 25.57102 51.55871 6996 ft 292 kts 216°
2026-05-06 09:47 25.55303 51.53723 7010 ft 290 kts 245°
2026-05-06 09:47 25.54769 51.52341 6999 ft 289 kts 251°
2026-05-06 09:48 25.54119 51.50241 6998 ft 290 kts 253°
2026-05-06 09:48 25.53512 51.48104 7007 ft 291 kts 254°
2026-05-06 09:48 25.52928 51.45974 6991 ft 289 kts 254°
2026-05-06 09:48 25.52353 51.43837 6996 ft 290 kts 254°
2026-05-06 09:49 25.51779 51.41690 6997 ft 289 kts 254°
2026-05-06 09:49 25.51218 51.39581 6994 ft 289 kts 255°
2026-05-06 09:49 25.50652 51.37447 6989 ft 289 kts 255°
2026-05-06 09:49 25.50090 51.35311 6996 ft 289 kts 255°
2026-05-06 09:50 25.49515 51.33140 6990 ft 289 kts 254°
2026-05-06 09:50 25.48955 51.31035 6995 ft 289 kts 254°
2026-05-06 09:50 25.48377 51.28908 6993 ft 289 kts 252°
2026-05-06 09:50 25.47453 51.26934 6995 ft 290 kts 230°
2026-05-06 09:51 25.45857 51.25615 7002 ft 289 kts 202°
2026-05-06 09:51 25.43888 51.25203 7004 ft 289 kts 181°
2026-05-06 09:51 25.41873 51.25225 7002 ft 291 kts 178°
2026-05-06 09:51 25.39841 51.25286 7012 ft 292 kts 178°
2026-05-06 09:52 25.37814 51.25338 7002 ft 292 kts 178°
2026-05-06 09:52 25.35779 51.25381 7001 ft 293 kts 179°
2026-05-06 09:52 25.33743 51.25412 6997 ft 292 kts 179°
2026-05-06 09:52 25.31716 51.25441 7004 ft 293 kts 179°
2026-05-06 09:53 25.29958 51.25464 6999 ft 293 kts 179°
2026-05-06 09:53 25.29332 51.25472 7000 ft 293 kts 179°
2026-05-06 09:53 25.27297 51.25570 6997 ft 292 kts 171°
2026-05-06 09:54 25.25370 51.26154 7005 ft 291 kts 159°
2026-05-06 09:54 25.23480 51.26952 7005 ft 292 kts 157°
2026-05-06 09:54 25.21562 51.27777 7003 ft 292 kts 158°
2026-05-06 09:54 25.19693 51.28577 7002 ft 292 kts 158°
2026-05-06 09:55 25.17803 51.29383 7006 ft 292 kts 158°
2026-05-06 09:55 25.15892 51.30194 7006 ft 292 kts 158°
2026-05-06 09:55 25.13994 51.30993 7004 ft 292 kts 158°
2026-05-06 09:55 25.12093 51.31789 7004 ft 292 kts 158°
2026-05-06 09:56 25.10193 51.32591 7006 ft 293 kts 157°
2026-05-06 09:56 25.08292 51.33396 7003 ft 293 kts 157°
2026-05-06 09:56 25.06391 51.34199 7007 ft 293 kts 157°
2026-05-06 09:56 25.04489 51.35003 7005 ft 293 kts 158°
2026-05-06 09:57 25.02584 51.35800 6998 ft 293 kts 158°
2026-05-06 09:57 25.00678 51.36599 7001 ft 293 kts 157°
2026-05-06 09:57 24.98775 51.37398 7002 ft 293 kts 157°
2026-05-06 09:57 24.96869 51.38197 7004 ft 293 kts 157°
2026-05-06 09:58 24.94969 51.38997 7002 ft 292 kts 157°
2026-05-06 09:58 24.93085 51.39838 6999 ft 292 kts 152°
2026-05-06 09:58 24.91354 51.41021 7261 ft 301 kts 142°
2026-05-06 09:58 24.89631 51.42380 8197 ft 305 kts 142°
2026-05-06 09:59 24.87921 51.43727 9487 ft 301 kts 143°
2026-05-06 09:59 24.86205 51.45075 10433 ft 308 kts 143°
2026-05-06 09:59 24.84400 51.46488 10906 ft 330 kts 144°
2026-05-06 09:59 24.82470 51.47997 11350 ft 349 kts 144°
2026-05-06 10:00 24.80454 51.49570 11815 ft 361 kts 144°
2026-05-06 10:00 24.78396 51.51173 11989 ft 363 kts 144°
2026-05-06 10:00 24.76331 51.52782 12006 ft 364 kts 144°
2026-05-06 10:00 24.74259 51.54397 12001 ft 365 kts 144°
2026-05-06 10:01 24.72100 51.55852 11995 ft 366 kts 156°
2026-05-06 10:01 24.69632 51.56461 12008 ft 366 kts 179°
2026-05-06 10:01 24.67082 51.56244 12474 ft 377 kts 189°
2026-05-06 10:01 24.64520 51.55685 13541 ft 373 kts 193°
2026-05-06 10:02 24.61996 51.55007 14459 ft 374 kts 195°
2026-05-06 10:02 24.59469 51.54299 15315 ft 376 kts 195°
2026-05-06 10:02 24.56919 51.53605 16171 ft 379 kts 194°
2026-05-06 10:02 24.54340 51.52937 17009 ft 382 kts 194°
2026-05-06 10:03 24.51735 51.52292 17813 ft 386 kts 193°
2026-05-06 10:03 24.49095 51.51659 18539 ft 389 kts 193°
2026-05-06 10:03 24.46440 51.51033 19204 ft 392 kts 193°
2026-05-06 10:03 24.43756 51.50406 19867 ft 396 kts 194°
2026-05-06 10:04 24.41055 51.49774 20527 ft 399 kts 194°
2026-05-06 10:04 24.38330 51.49135 21152 ft 402 kts 194°
2026-05-06 10:04 24.35577 51.48489 21680 ft 405 kts 194°
2026-05-06 10:04 24.32813 51.47839 22166 ft 409 kts 194°
2026-05-06 10:05 24.30026 51.47183 22703 ft 412 kts 194°
2026-05-06 10:05 24.27210 51.46521 23218 ft 415 kts 194°
2026-05-06 10:05 24.24374 51.45855 23680 ft 418 kts 194°
2026-05-06 10:05 24.21491 51.45380 24121 ft 422 kts 186°
2026-05-06 10:06 24.18544 51.45208 24606 ft 425 kts 184°
2026-05-06 10:06 24.15582 51.45148 25079 ft 427 kts 183°
2026-05-06 10:06 24.12606 51.45148 25551 ft 430 kts 182°
2026-05-06 10:06 24.09606 51.45176 26037 ft 432 kts 182°
2026-05-06 10:07 24.06601 51.45210 26526 ft 433 kts 182°
2026-05-06 10:07 24.03575 51.45239 26989 ft 435 kts 182°
2026-05-06 10:07 24.00537 51.45262 27455 ft 438 kts 183°
2026-05-06 10:07 23.97481 51.45278 27755 ft 440 kts 183°
2026-05-06 10:08 23.94461 51.45292 27806 ft 427 kts 183°
2026-05-06 10:08 23.91536 51.45307 27802 ft 412 kts 183°
2026-05-06 10:08 23.88714 51.45321 27803 ft 401 kts 183°
2026-05-06 10:08 23.85962 51.45330 27805 ft 400 kts 183°
2026-05-06 10:09 23.83180 51.45335 27804 ft 401 kts 183°
2026-05-06 10:09 23.80352 51.45341 27800 ft 401 kts 183°
2026-05-06 10:09 23.77562 51.45347 27798 ft 401 kts 183°
2026-05-06 10:09 23.74808 51.45354 27795 ft 401 kts 183°
2026-05-06 10:10 23.72015 51.45363 27796 ft 401 kts 183°
2026-05-06 10:10 23.69227 51.45372 27795 ft 401 kts 183°
2026-05-06 10:10 23.66436 51.45381 27787 ft 401 kts 183°
2026-05-06 10:10 23.63641 51.45391 27788 ft 402 kts 183°
2026-05-06 10:11 23.60844 51.45401 27786 ft 402 kts 183°
2026-05-06 10:11 23.58049 51.45410 27785 ft 402 kts 183°
2026-05-06 10:11 23.55251 51.45420 27782 ft 402 kts 183°
2026-05-06 10:11 23.52457 51.45429 27783 ft 402 kts 183°
2026-05-06 10:12 23.49659 51.45438 27778 ft 402 kts 183°
2026-05-06 10:12 23.46863 51.45449 27780 ft 402 kts 182°
2026-05-06 10:12 23.44065 51.45480 27776 ft 402 kts 182°
2026-05-06 10:12 23.41267 51.45525 27777 ft 402 kts 182°
2026-05-06 10:13 23.38464 51.45575 27776 ft 403 kts 182°
2026-05-06 10:13 23.35657 51.45625 27777 ft 402 kts 182°
2026-05-06 10:13 23.32855 51.45674 27772 ft 402 kts 182°
2026-05-06 10:13 23.30058 51.45720 27771 ft 402 kts 182°
2026-05-06 10:14 23.27258 51.45765 27770 ft 403 kts 182°
2026-05-06 10:14 23.24456 51.45809 27771 ft 403 kts 182°
2026-05-06 10:14 23.21652 51.45853 27765 ft 403 kts 182°
2026-05-06 10:14 23.18850 51.45899 27765 ft 403 kts 182°
2026-05-06 10:15 23.16049 51.45937 27766 ft 403 kts 182°
2026-05-06 10:15 23.13249 51.45973 27767 ft 403 kts 182°
2026-05-06 10:15 23.10448 51.46008 27766 ft 403 kts 182°
2026-05-06 10:15 23.07648 51.46043 27767 ft 403 kts 182°
2026-05-06 10:16 23.04844 51.46080 27767 ft 403 kts 182°
2026-05-06 10:16 23.02041 51.46118 27763 ft 403 kts 182°
2026-05-06 10:16 22.99235 51.46156 27764 ft 403 kts 182°
2026-05-06 10:16 22.96431 51.46195 27761 ft 403 kts 182°
2026-05-06 10:17 22.93629 51.46187 27758 ft 402 kts 186°
2026-05-06 10:17 22.90880 51.45755 27760 ft 398 kts 197°
2026-05-06 10:17 22.88294 51.44751 27754 ft 394 kts 208°
2026-05-06 10:17 22.85987 51.43176 27761 ft 391 kts 221°
2026-05-06 10:18 22.84075 51.41100 27757 ft 389 kts 233°
2026-05-06 10:18 22.82644 51.38622 27759 ft 388 kts 245°
2026-05-06 10:18 22.81756 51.35867 27759 ft 388 kts 257°
2026-05-06 10:18 22.81445 51.32963 27758 ft 389 kts 269°
2026-05-06 10:19 22.81726 51.30044 27758 ft 391 kts 281°
2026-05-06 10:19 22.82596 51.27241 27760 ft 394 kts 293°
2026-05-06 10:19 22.83905 51.24622 27758 ft 396 kts 296°
2026-05-06 10:19 22.85099 51.21943 27763 ft 394 kts 289°
2026-05-06 10:20 22.85899 51.19112 27766 ft 392 kts 279°
2026-05-06 10:20 22.86359 51.16206 27760 ft 391 kts 276°
2026-05-06 10:20 22.86666 51.13275 27764 ft 391 kts 274°
2026-05-06 10:20 22.86886 51.10339 27764 ft 391 kts 272°
2026-05-06 10:21 22.87064 51.07400 27764 ft 391 kts 272°
2026-05-06 10:21 22.87231 51.04459 27764 ft 391 kts 272°
2026-05-06 10:21 22.87400 51.01524 27764 ft 391 kts 272°
2026-05-06 10:21 22.87579 50.98583 27764 ft 391 kts 272°
2026-05-06 10:22 22.87766 50.95645 27761 ft 391 kts 272°
2026-05-06 10:22 22.87957 50.92709 27767 ft 390 kts 272°
2026-05-06 10:22 22.88152 50.89771 27766 ft 390 kts 272°
2026-05-06 10:22 22.88347 50.86835 27769 ft 390 kts 272°
2026-05-06 10:23 22.88542 50.83900 27769 ft 390 kts 272°
2026-05-06 10:23 22.88735 50.80968 27768 ft 390 kts 272°
2026-05-06 10:23 22.88928 50.78032 27768 ft 390 kts 272°
2026-05-06 10:23 22.89118 50.75138 27766 ft 390 kts 272°
2026-05-06 10:24 22.89309 50.72204 27767 ft 390 kts 272°
2026-05-06 10:24 22.89499 50.69271 27768 ft 390 kts 272°
2026-05-06 10:24 22.89689 50.66338 27769 ft 390 kts 272°
2026-05-06 10:24 22.89878 50.63411 27768 ft 390 kts 272°
2026-05-06 10:25 22.90067 50.60476 27768 ft 389 kts 272°
2026-05-06 10:25 22.90255 50.57542 27772 ft 389 kts 272°
2026-05-06 10:25 22.90443 50.54617 27772 ft 389 kts 272°
2026-05-06 10:25 22.90630 50.51690 27773 ft 389 kts 272°
2026-05-06 10:26 22.90816 50.48760 27772 ft 389 kts 272°
2026-05-06 10:26 22.91002 50.45834 27770 ft 389 kts 272°
2026-05-06 10:26 22.91187 50.42910 27771 ft 389 kts 272°
2026-05-06 10:26 22.91373 50.39974 27772 ft 389 kts 272°
2026-05-06 10:27 22.91556 50.37053 27772 ft 389 kts 272°
2026-05-06 10:27 22.91740 50.34131 27773 ft 389 kts 272°
2026-05-06 10:27 22.91923 50.31206 27771 ft 389 kts 272°
2026-05-06 10:27 22.92105 50.28281 27770 ft 388 kts 272°
2026-05-06 10:28 22.92287 50.25359 27770 ft 388 kts 272°
2026-05-06 10:28 22.92468 50.22433 27767 ft 388 kts 272°
2026-05-06 10:28 22.92649 50.19508 27768 ft 388 kts 272°
2026-05-06 10:28 22.92829 50.16586 27769 ft 388 kts 272°
2026-05-06 10:29 22.93009 50.13660 27769 ft 388 kts 272°
2026-05-06 10:29 22.93188 50.10740 27770 ft 388 kts 272°
2026-05-06 10:29 22.93366 50.07818 27768 ft 388 kts 272°
2026-05-06 10:29 22.93544 50.04895 27768 ft 388 kts 272°
2026-05-06 10:30 22.93720 50.02011 27769 ft 388 kts 272°
2026-05-06 10:30 22.93897 49.99089 27770 ft 388 kts 272°
2026-05-06 10:30 22.94073 49.96164 27770 ft 388 kts 272°
2026-05-06 10:30 22.94249 49.93240 27773 ft 388 kts 272°
2026-05-06 10:31 22.94425 49.90314 27767 ft 388 kts 272°
2026-05-06 10:31 22.94599 49.87389 27767 ft 388 kts 272°
2026-05-06 10:31 22.94773 49.84468 27765 ft 388 kts 272°
2026-05-06 10:31 22.94947 49.81545 27765 ft 388 kts 272°
2026-05-06 10:32 22.95120 49.78623 27766 ft 388 kts 272°
2026-05-06 10:32 22.95293 49.75700 27768 ft 388 kts 272°
2026-05-06 10:32 22.95465 49.72779 27769 ft 388 kts 272°
2026-05-06 10:32 22.95578 49.70848 27767 ft 388 kts 272°
2026-05-06 10:33 22.95807 49.66937 27769 ft 388 kts 272°
2026-05-06 10:33 22.95920 49.65004 27768 ft 388 kts 272°
2026-05-06 10:33 22.96089 49.62086 27766 ft 388 kts 272°
2026-05-06 10:33 22.96259 49.59169 27765 ft 387 kts 272°
2026-05-06 10:34 22.96428 49.56250 27764 ft 387 kts 272°
2026-05-06 10:34 22.96596 49.53335 27770 ft 387 kts 272°
2026-05-06 10:34 22.96763 49.50424 27764 ft 387 kts 272°
2026-05-06 10:34 22.96930 49.47511 27765 ft 387 kts 272°
2026-05-06 10:35 22.97096 49.44602 27767 ft 387 kts 272°
2026-05-06 10:35 22.97262 49.41691 27768 ft 386 kts 272°
2026-05-06 10:35 22.97427 49.38783 27769 ft 386 kts 272°
2026-05-06 10:35 22.97591 49.35872 27767 ft 386 kts 272°
2026-05-06 10:36 22.97755 49.32968 27773 ft 386 kts 272°
2026-05-06 10:36 22.97918 49.30064 27772 ft 386 kts 272°
2026-05-06 10:36 22.98081 49.27164 27770 ft 385 kts 272°
2026-05-06 10:36 22.98243 49.24259 27761 ft 385 kts 272°
2026-05-06 10:37 22.98404 49.21353 27772 ft 385 kts 271°
2026-05-06 10:37 22.98565 49.18452 27770 ft 385 kts 271°
2026-05-06 10:37 22.98725 49.15553 27775 ft 385 kts 271°
2026-05-06 10:37 22.98882 49.12700 27758 ft 385 kts 271°
2026-05-06 10:38 22.99041 49.09798 27763 ft 384 kts 271°
2026-05-06 10:38 22.99201 49.06901 27767 ft 384 kts 271°
2026-05-06 10:38 22.99360 49.04002 27771 ft 385 kts 271°
2026-05-06 10:38 22.99517 49.01102 27775 ft 385 kts 271°
2026-05-06 10:39 22.99678 48.98197 27773 ft 386 kts 271°
2026-05-06 10:39 22.99885 48.95297 27776 ft 386 kts 272°
2026-05-06 10:39 23.00129 48.92395 27777 ft 386 kts 273°
2026-05-06 10:39 23.00384 48.89495 27778 ft 386 kts 273°
2026-05-06 10:40 23.00639 48.86589 27781 ft 386 kts 273°
2026-05-06 10:40 23.00887 48.83689 27779 ft 386 kts 273°
2026-05-06 10:40 23.01129 48.80783 27779 ft 386 kts 272°
2026-05-06 10:40 23.01365 48.77883 27775 ft 386 kts 272°
2026-05-06 10:41 23.01598 48.74984 27780 ft 386 kts 272°
2026-05-06 10:41 23.01830 48.72079 27780 ft 386 kts 272°
2026-05-06 10:41 23.02061 48.69180 27781 ft 386 kts 272°
2026-05-06 10:41 23.02291 48.66280 27781 ft 386 kts 272°
2026-05-06 10:42 23.02521 48.63378 27778 ft 386 kts 272°
2026-05-06 10:42 23.02750 48.60481 27785 ft 385 kts 272°
2026-05-06 10:42 23.02979 48.57584 27782 ft 385 kts 272°
2026-05-06 10:42 23.03208 48.54686 27781 ft 385 kts 272°
2026-05-06 10:43 23.03436 48.51787 27781 ft 385 kts 272°
2026-05-06 10:43 23.03664 48.48895 27784 ft 385 kts 272°
2026-05-06 10:43 23.03887 48.46036 27781 ft 385 kts 272°
2026-05-06 10:44 23.04339 48.40247 27781 ft 385 kts 272°
2026-05-06 10:44 23.04564 48.37355 27782 ft 385 kts 272°
2026-05-06 10:44 23.04789 48.34453 27786 ft 385 kts 272°
2026-05-06 10:44 23.05013 48.31561 27782 ft 385 kts 272°
2026-05-06 10:45 23.05237 48.28670 27783 ft 385 kts 272°
2026-05-06 10:45 23.05460 48.25775 27784 ft 385 kts 272°
2026-05-06 10:45 23.05682 48.22884 27783 ft 384 kts 272°
2026-05-06 10:45 23.05904 48.19990 27781 ft 384 kts 272°
2026-05-06 10:46 23.06125 48.17102 27784 ft 384 kts 272°
2026-05-06 10:46 23.06346 48.14213 27782 ft 384 kts 272°
2026-05-06 10:46 23.06566 48.11326 27780 ft 384 kts 272°
2026-05-06 10:46 23.06785 48.08438 27788 ft 384 kts 272°
2026-05-06 10:47 23.07004 48.05554 27786 ft 383 kts 272°
2026-05-06 10:47 23.07222 48.02670 27788 ft 383 kts 272°
2026-05-06 10:47 23.07440 47.99781 27788 ft 383 kts 272°
2026-05-06 10:47 23.07656 47.96899 27790 ft 383 kts 272°
2026-05-06 10:48 23.07873 47.94015 27789 ft 383 kts 272°
2026-05-06 10:48 23.08088 47.91139 27796 ft 383 kts 272°
2026-05-06 10:48 23.08303 47.88255 27784 ft 383 kts 272°
2026-05-06 10:48 23.08518 47.85376 27798 ft 382 kts 272°
2026-05-06 10:49 23.08845 47.82506 27801 ft 385 kts 278°
2026-05-06 10:49 23.09604 47.79716 27793 ft 388 kts 289°
2026-05-06 10:49 23.10874 47.77120 27805 ft 393 kts 301°
2026-05-06 10:49 23.12669 47.74845 27797 ft 400 kts 313°
2026-05-06 10:50 23.14885 47.72989 27796 ft 404 kts 321°
2026-05-06 10:50 23.17243 47.71313 27812 ft 406 kts 323°
2026-05-06 10:50 23.19651 47.69707 27798 ft 407 kts 324°
2026-05-06 10:50 23.22077 47.68122 27801 ft 407 kts 324°
2026-05-06 10:51 23.24500 47.66537 27815 ft 407 kts 324°
2026-05-06 10:51 23.26923 47.64937 27809 ft 407 kts 323°
2026-05-06 10:51 23.29333 47.63328 27812 ft 407 kts 323°
2026-05-06 10:51 23.31737 47.61710 27815 ft 407 kts 323°
2026-05-06 10:52 23.34140 47.60084 27815 ft 406 kts 323°
2026-05-06 10:52 23.36540 47.58456 27818 ft 407 kts 323°
2026-05-06 10:52 23.38910 47.56847 27824 ft 407 kts 323°
2026-05-06 10:52 23.41338 47.55197 27820 ft 407 kts 323°
2026-05-06 10:53 23.43738 47.53566 27825 ft 407 kts 323°
2026-05-06 10:53 23.46109 47.51957 27827 ft 407 kts 323°
2026-05-06 10:53 23.48512 47.50329 27825 ft 407 kts 323°
2026-05-06 10:53 23.50914 47.48701 27831 ft 406 kts 323°
2026-05-06 10:54 23.53273 47.47098 27829 ft 406 kts 323°
2026-05-06 10:54 23.55718 47.45435 27833 ft 406 kts 323°
2026-05-06 10:54 23.58118 47.43802 27840 ft 406 kts 322°
2026-05-06 10:54 23.60515 47.42171 27839 ft 407 kts 322°
2026-05-06 10:55 23.62915 47.40538 27836 ft 406 kts 322°
2026-05-06 10:55 23.65285 47.38924 27843 ft 406 kts 322°
2026-05-06 10:55 23.67688 47.37287 27842 ft 406 kts 322°
2026-05-06 10:55 23.70089 47.35652 27843 ft 406 kts 322°
2026-05-06 10:56 23.72487 47.34017 27848 ft 406 kts 322°
2026-05-06 10:56 23.74888 47.32381 27845 ft 407 kts 322°
2026-05-06 10:56 23.77284 47.30746 27852 ft 407 kts 322°
2026-05-06 10:56 23.79680 47.29111 27851 ft 407 kts 322°
2026-05-06 10:57 23.82081 47.27472 27853 ft 407 kts 322°
2026-05-06 10:57 23.84484 47.25830 27854 ft 407 kts 322°
2026-05-06 10:57 23.86879 47.24193 27859 ft 407 kts 322°
2026-05-06 10:57 23.89280 47.22552 27860 ft 407 kts 322°
2026-05-06 10:58 23.91681 47.20910 27861 ft 407 kts 322°
2026-05-06 10:58 23.94077 47.19271 27863 ft 407 kts 322°
2026-05-06 10:58 23.96478 47.17628 27862 ft 406 kts 322°
2026-05-06 10:58 23.98871 47.15989 27865 ft 406 kts 322°
2026-05-06 10:59 24.01268 47.14346 27870 ft 406 kts 322°
2026-05-06 10:59 24.03662 47.12705 27871 ft 406 kts 322°
2026-05-06 10:59 24.06057 47.11062 27872 ft 407 kts 322°
2026-05-06 10:59 24.08456 47.09417 27877 ft 407 kts 322°
2026-05-06 11:00 24.10881 47.07814 27875 ft 410 kts 326°
2026-05-06 11:00 24.13464 47.06462 27883 ft 412 kts 330°
2026-05-06 11:00 24.16094 47.05185 27884 ft 413 kts 331°
2026-05-06 11:00 24.18739 47.03944 27889 ft 414 kts 331°
2026-05-06 11:01 24.21394 47.02719 27892 ft 414 kts 332°
2026-05-06 11:01 24.24056 47.01496 27884 ft 415 kts 332°
2026-05-06 11:01 24.26720 47.00270 27895 ft 415 kts 331°
2026-05-06 11:01 24.29376 46.99043 27901 ft 415 kts 331°
2026-05-06 11:02 24.32034 46.97811 27903 ft 415 kts 331°
2026-05-06 11:02 24.34688 46.96576 27912 ft 414 kts 331°
2026-05-06 11:02 24.37362 46.95330 27912 ft 414 kts 331°
2026-05-06 11:02 24.40019 46.94090 27912 ft 414 kts 331°
2026-05-06 11:03 24.42667 46.92855 27909 ft 414 kts 331°
2026-05-06 11:03 24.45319 46.91617 27918 ft 414 kts 331°
2026-05-06 11:03 24.47969 46.90380 27919 ft 414 kts 331°
2026-05-06 11:03 24.50621 46.89141 27922 ft 414 kts 331°
2026-05-06 11:04 24.53271 46.87902 27927 ft 414 kts 331°
2026-05-06 11:04 24.55924 46.86662 27931 ft 414 kts 331°
2026-05-06 11:04 24.58573 46.85423 27934 ft 414 kts 331°
2026-05-06 11:04 24.61220 46.84184 27939 ft 414 kts 331°
2026-05-06 11:05 24.63867 46.82945 27938 ft 414 kts 330°
2026-05-06 11:05 24.66516 46.81704 27943 ft 414 kts 330°
2026-05-06 11:05 24.69163 46.80463 27945 ft 413 kts 330°
2026-05-06 11:05 24.71817 46.79219 27945 ft 413 kts 330°
2026-05-06 11:06 24.74463 46.77978 27943 ft 413 kts 330°
2026-05-06 11:06 24.77108 46.76738 27949 ft 413 kts 330°
2026-05-06 11:06 24.79748 46.75499 27945 ft 413 kts 330°
2026-05-06 11:06 24.82392 46.74257 27943 ft 413 kts 330°
2026-05-06 11:07 24.85034 46.73015 27942 ft 413 kts 330°
2026-05-06 11:07 24.87673 46.71774 27938 ft 412 kts 330°
2026-05-06 11:07 24.90282 46.70547 27940 ft 412 kts 330°
2026-05-06 11:07 24.92922 46.69305 27939 ft 412 kts 330°
2026-05-06 11:08 24.95558 46.68056 27938 ft 411 kts 329°
2026-05-06 11:08 24.98033 46.66545 27941 ft 403 kts 318°
2026-05-06 11:08 25.00217 46.64650 27940 ft 397 kts 313°
2026-05-06 11:08 25.02296 46.62643 27941 ft 396 kts 311°
2026-05-06 11:09 25.04325 46.60593 27944 ft 395 kts 310°
2026-05-06 11:09 25.06332 46.58524 27949 ft 395 kts 310°
2026-05-06 11:09 25.08331 46.56452 27950 ft 395 kts 310°
2026-05-06 11:09 25.10333 46.54379 27954 ft 395 kts 310°
2026-05-06 11:10 25.12339 46.52311 27958 ft 395 kts 310°
2026-05-06 11:10 25.14349 46.50246 27958 ft 395 kts 310°
2026-05-06 11:10 25.16362 46.48183 27963 ft 395 kts 310°
2026-05-06 11:10 25.18376 46.46122 27968 ft 395 kts 310°
2026-05-06 11:11 25.20388 46.44062 27972 ft 395 kts 310°
2026-05-06 11:11 25.22400 46.42003 27975 ft 394 kts 310°
2026-05-06 11:11 25.24415 46.39940 27976 ft 394 kts 310°
2026-05-06 11:11 25.26425 46.37879 27976 ft 394 kts 310°
2026-05-06 11:12 25.28433 46.35819 27975 ft 394 kts 310°
2026-05-06 11:12 25.30444 46.33756 27975 ft 394 kts 310°
2026-05-06 11:12 25.32450 46.31695 27975 ft 394 kts 310°
2026-05-06 11:12 25.34461 46.29629 27976 ft 394 kts 310°
2026-05-06 11:13 25.36466 46.27569 27981 ft 394 kts 310°
2026-05-06 11:13 25.38474 46.25504 27978 ft 394 kts 310°
2026-05-06 11:13 25.40480 46.23440 27979 ft 394 kts 310°
2026-05-06 11:13 25.42484 46.21377 27977 ft 394 kts 309°
2026-05-06 11:14 25.44493 46.19309 27977 ft 394 kts 309°
2026-05-06 11:14 25.46497 46.17244 27978 ft 394 kts 309°
2026-05-06 11:14 25.48496 46.15184 27977 ft 393 kts 309°
2026-05-06 11:14 25.50502 46.13115 27978 ft 393 kts 309°
2026-05-06 11:15 25.52502 46.11052 27980 ft 393 kts 309°
2026-05-06 11:15 25.54503 46.08986 27977 ft 393 kts 309°
2026-05-06 11:15 25.56503 46.06920 27979 ft 393 kts 309°
2026-05-06 11:15 25.58503 46.04853 27980 ft 393 kts 309°
2026-05-06 11:16 25.60503 46.02787 27978 ft 393 kts 309°
2026-05-06 11:16 25.62501 46.00720 27978 ft 393 kts 309°
2026-05-06 11:16 25.64501 45.98653 27981 ft 393 kts 309°
2026-05-06 11:16 25.66496 45.96588 27979 ft 393 kts 309°
2026-05-06 11:17 25.68491 45.94522 27982 ft 393 kts 309°
2026-05-06 11:17 25.69811 45.93153 27984 ft 392 kts 309°
2026-05-06 11:17 25.71806 45.91084 27983 ft 392 kts 309°
2026-05-06 11:17 25.74470 45.88320 27984 ft 392 kts 309°